User: anonymous   Login
Location: Irma
(52.9170°N, 111.2330°W)
Time: 13:15:37
(UTC-07:00)
Language:

Meteor 1-24 Rocket - Orbit

View from above orbital plane
View from above orbital plane
View from above satellite
View from above satellite

Ground track
Ground track

The orbit data is extracted from the following two-line orbital elements,

1 08800U 76032B   14330.18884302  .00000211  00000-0  10884-3 0  1708
2 08800 081.2530 045.8868 0092953 309.9817 108.1562 14.09984635986567
Epoch (UTC): 26 November 2014 04:31:56
Eccentricity: 0.0092953
inclination: 81.2530°
perigee height: 792 km
apogee height: 927 km
right ascension of ascending node: 45.8868°
argument of perigee: 309.9817°
revolutions per day: 14.09984635
mean anomaly at epoch: 108.1562°
orbit number at epoch: 98656

The dashed part of the orbit path shows where the satellite is in the earth's shadow,  

DLR